30P/Reinmuth 1 (2024)

Japanese version
Home page
Updated on March 26, 2025

---------------------------------------------------------------------

* Profile

* Pictures

* Orbital Elements

Epoch 2025 May 5.0 TT = JDT 2460800.5
T 2024 Aug. 17.22436 TT                                 Pike
q   1.8138464            (2000.0)            P               Q
n   0.13653302     Peri.    9.51011     -0.59678908     -0.79267060
a   3.7351748      Node   117.23369     +0.72667241     -0.59974893
e   0.5143878      Incl.    8.05325     +0.34027929     -0.10942822
P   7.22
From 1184 observations 2011 Apr. 12-2025 Feb. 26, mean residual 0".8.

* Finding Charts

* Magnitudes Graph

        m1 = 10.0 + 5 log d + 13.0 log r  [ ,0]  (             - 2024 Aug. 17)
        m1 =  7.7 + 5 log d + 22.0 log r  [0, ]  (2024 Aug. 17 -             )

---------------------------------------------------------------------

The orbital elements are published on M.P.E.C. 2025-D254.
The charts are made with StellaNavigator Ver.10 (AstroArts).
The magnitudes graphs are made with Comet for Windows.

---------------------------------------------------------------------

Copyright(C) Seiichi Yoshida (comet@aerith.net). All rights reserved.